Тержола

Грузия     42°11′13″N   42°58′46″E
темп.,
°C
ветер,
м/с
пор.,
м/с
влажн.,
%
обл.,
%
осадки,
мм/ч
давл.,
гПа
погр.,
м
12 апреля, пн
пн1201:00+5юз2499100 1.4 1022377
04:00+5юз1199100 1.4 1022162
07:00+5юз1198100 0.1 1021141
10:00+6юз2297100 0.4 1022254
13:00+6зюз2294100 0.4 1022359
16:00+7з2492100 1.3 1022363
19:00+6з2599100 1.8 1023281
22:00+6всв1196100 5.0 102491
13 апреля, вт
вт1301:00+6св119063 0.1 102430
04:00+6ю1098100 0.6 1022112
07:00+6юз12100100 1.0 1022194
10:00+6юз2299100 2.2 1023363
13:00+6юз2398100 0.7 1023443
16:00+6юз2499100 2.3 1022383
19:00+6юз2499100 8.8 1022237
22:00+6ююз12100100 11.5 1022124
14 апреля, ср
ср1401:00+6всв1197100 8.1 102390
04:00+5ссв0193100 8.8 102277
07:00+5в0192100 0.0 102268
10:00+8ююв118197 0.0 1021566
13:00+13ю126295 0.1 1019885
16:00+16з354786 0.1 10171391
19:00+12зюз22694 0.0 101732
22:00+8св22785 0.0 101820
15 апреля, чт
чт1501:00+7св32754 0.0 101829
04:00+6св33715 0.0 101830
07:00+6св346853 0.0 101857
10:00+15в34455 0.0 1016519
13:00+20всв023650 0.0 10151239
16:00+20зюз4538100 0.0 10141449
19:00+15зсз4968100 0.1 1016364
22:00+9ююз2285100 0.1 101954
16 апреля, пт
пт1601:00+7вюв1196100 0.0 102010
04:00+8всв229086 0.0 1019114
07:00+8всв238328 0.0 101843
10:00+16в24551 0.0 1016521
13:00+21в22385 0.0 10151316
16:00+23з2232100 0.0 10141596
19:00+18зсз115997 0.0 101511
22:00+10ююв2292100 0.0 101952